Flag for Philippines Weather past 2 weeks in Makati, Philippines

Now
81 °F

Passing clouds.


Feels Like: 84 °F
Forecast: 80 / 96 °F
Wind: 6 mph from Southeast

Location: National Airport


UV Index: 10 (Very high)

Visibility: N/A


Pressure: 29.80 "Hg

Humidity: 70%

Dew point: 70 °F

Location of MakatiLocation

Historic Weather in Makati

°F

Makati temperature yesterday

Maximum temperature yesterday: 95 °F (at 1:00 PM)
Minimum temperature yesterday: 79 °F (at 6:00 AM)
Average temperature yesterday: 86 °F

Past Weeks' High & Low Weather Summary

 TemperatureHumidityPressure
High95 °F (Apr 4, 1:00 PM)79% (Apr 4, 5:00 AM)29.98 "Hg (Apr 4, 5:00 AM)
Low77 °F (Apr 4, 2:00 PM)39% (Apr 4, 1:00 PM)29.65 "Hg (Apr 6, 10:00 PM)
Average85 °F62%29.85 "Hg
* Reported Apr 4 4:00 AM — Apr 19 4:00 AM, Makati, Weather by CustomWeather, © 2014

Note: Actual official high and low records may vary slightly from our data, if they occured in-between our weather recording intervals... More about our weather records

Advertising

Historic Weather Conditions — Data for Previous 24 hours

 ConditionsComfort  
Time TempWeatherWind HumidityBarometerVisibility
4:00 AM
Apr 19
81 °FPassing clouds.6 mph70%29.80 "HgN/A
3:00 AM81 °FPassing clouds.6 mph74%29.80 "HgN/A
2:00 AM82 °FPassing clouds.5 mph70%29.83 "HgN/A
1:00 AM82 °FPassing clouds.6 mph70%29.83 "HgN/A
12:00 AM82 °FPassing clouds.5 mph70%29.86 "HgN/A
11:00 PM
Apr 18
82 °FPassing clouds.5 mph70%29.86 "HgN/A
10:00 PM84 °FPassing clouds.6 mph66%29.86 "HgN/A
9:00 PM84 °FPassing clouds.7 mph66%29.86 "HgN/A
8:00 PM84 °FPassing clouds.10 mph70%29.83 "HgN/A
7:00 PM86 °FPassing clouds.13 mph62%29.83 "HgN/A
6:00 PM88 °FScattered clouds.10 mph59%29.80 "HgN/A
5:00 PM91 °FScattered clouds.10 mph49%29.77 "HgN/A
4:00 PM91 °FScattered clouds.9 mph52%29.77 "HgN/A
3:00 PM93 °FScattered clouds.10 mph47%29.77 "HgN/A
2:00 PM93 °FPassing clouds.12 mph47%29.80 "HgN/A
1:00 PM95 °FScattered clouds.9 mph44%29.83 "HgN/A
12:00 PM93 °FScattered clouds.8 mph47%29.86 "HgN/A
11:00 AM91 °FPassing clouds.7 mph49%29.89 "HgN/A
10:00 AM90 °FPassing clouds.8 mph55%29.89 "HgN/A
9:00 AM86 °FPassing clouds.7 mph59%29.92 "HgN/A
8:00 AM84 °FPassing clouds.6 mph66%29.89 "HgN/A
7:00 AM82 °FPassing clouds.6 mph74%29.86 "HgN/A
6:00 AM79 °FPassing clouds.3 mph79%29.86 "HgN/A
5:00 AM81 °FPassing clouds.2 mph70%29.83 "HgN/A
4:00 AM81 °FPassing clouds.3 mph70%29.83 "HgN/A
Weather by CustomWeather, © 2014

See weather overview